Location: Bacea
(45.9500°N, 22.6667°E)
Time: 05:15:38
(UTC+00:00)

N. Korean satellite - Visible Passes

Search period start: 25 January 2022 00:00
Search period end: 04 February 2022 00:00
Orbit: 447 x 491 km, 97.3° (Epoch: 24 January)

Date Brightness Start Highest point End Pass type
(mag) Time Alt. Az. Time Alt. Az. Time Alt. Az.
25 Jan 8.6 03:09:44 10° NE 03:12:48 28° E 03:12:48 28° E visible
25 Jan 7.8 04:43:04 10° NNW 04:45:55 22° WNW 04:46:52 20° W visible
26 Jan 9.8 02:41:42 10° ENE 02:43:30 13° E 02:43:44 13° E visible
26 Jan 6.8 04:13:23 10° N 04:16:54 46° WNW 04:17:47 37° WSW visible
27 Jan 6.7 03:44:05 10° NNE 03:47:44 75° E 03:48:43 46° S visible
27 Jan 9.8 15:54:32 10° SW 15:56:41 15° W 15:58:52 10° NW visible
28 Jan 8.3 03:15:08 10° NNE 03:18:27 32° E 03:19:40 25° SE visible
28 Jan 7.9 04:48:44 10° NNW 04:51:23 19° WNW 04:53:43 11° WSW visible
29 Jan 9.6 02:46:49 10° NE 02:49:01 15° E 02:50:37 12° ESE visible
29 Jan 7.0 04:18:55 10° N 04:22:20 39° WNW 04:24:42 17° SW visible
30 Jan 6.5 03:49:31 10° NNE 03:53:10 88° ESE 03:55:42 19° SSW visible
30 Jan 9.9 16:00:20 10° WSW 16:02:08 13° W 16:03:57 10° WNW visible
31 Jan 8.0 03:20:27 10° NNE 03:23:52 37° E 03:26:48 13° SSE visible
31 Jan 8.1 04:54:18 10° NNW 04:56:43 17° WNW 04:59:07 10° WSW visible
01 Feb 9.4 02:51:56 10° NE 02:54:25 17° E 02:56:53 10° SE visible
01 Feb 7.2 04:24:20 10° N 04:27:40 34° WNW 04:30:57 10° SW visible
02 Feb 6.4 03:54:50 10° N 03:58:29 79° WNW 04:02:04 10° SSW visible
02 Feb 10.1 16:06:07 10° WSW 16:07:28 12° W 16:08:50 10° WNW visible
03 Feb 7.7 03:25:40 10° NNE 03:29:09 43° E 03:32:36 10° S visible
03 Feb 8.3 04:59:49 10° NNW 05:01:56 15° WNW 05:04:03 10° W visible
